Search for airport 
image banner adimage banner ad
image banner ad

SVCO - Carora

Located in Lara, Venezuela

ICAO - SVCO, IATA - VCR

Data provided by Airmate  

General information

Coordinates: N10°10'32" W70°3'54"
Elevation is 1496 feet MSL.
 
Rated:
View ratings: [VIEW]


View others Airports in Lara

Operational data

Open for public use
Current time UTC:
Current local time:
METAR: SVBM 281602Z AUTO 04005KT NCD 32/15 Q1019
TAF: TAF SVBM 281006Z 2812/2912 12008KT 9999 FEW016 TX33/2818Z TN21/2908Z BECMG 2816/2820 09010KT 9999 FEW020 SCT070
View NOTAMs / SUP AIP / TFR affecting this airport [VIEW]
Communications frequencies: [VIEW]

Runways:

RWY identifierQFULength (ft)Width (ft)SurfaceLDA (ft)
1097°5052164ASP
285052164

Airport contact information

Address: Lara Venezuela

Satellite view of SVCO